Weather History for Johnstown, PA

Change the Weather History Date:

Sunday, March 24, 2013

  Actual Average Record
Temperature  
Mean Temperature 27 °F 39 °F  
Max Temperature 34 °F 47 °F 83 °F (1966)
Min Temperature 21 °F 30 °F 10 °F (2014)
Degree Days  
Heating Degree Days 38 27  
Month to date heating degree days 738  
Since 1 July heating degree days 5617  
Cooling Degree Days 0 0  
Month to date cooling degree days 0  
Year to date cooling degree days 0  
Moisture  
Dew Point 19 °F    
Average Humidity 69    
Maximum Humidity 81    
Minimum Humidity 54    
Precipitation  
Precipitation 0.00 in 0.12 in 1.46 in (1953)
Month to date precipitation 2.35  
Year to date precipitation 7.58  
Sea Level Pressure  
Sea Level Pressure 29.78 in    
Wind  
Wind Speed 5 mph (East)    
Max Wind Speed 9 mph    
Max Gust Speed 21 mph    
Visibility 9 miles    
Events Snow    
T = Trace of Precipitation, MM = Missing Value Source: NWS Daily Summary

Daily Weather History Graph

Daily Weather History Graph

Search for Another Location

Airport:

Trip Planner

Search our weather history database for the weather conditions in past years. The results will help you decide how hot, cold, wet, or windy it might be!

Date:

Astronomy

Mar. 24, 2013 Rise Set
Actual Time 7:11 AM EDT 7:31 PM EDT
Civil Twilight 6:44 AM EDT 7:59 PM EDT
Nautical Twilight 6:12 AM EDT 8:31 PM EDT
Astronomical Twilight 5:40 AM EDT 9:03 PM EDT
Moon 4:57 PM EDT (3/24) 5:21 AM EDT (3/24)
Length of Visible Light 13h 14m
Length of Day
12h 20m
Waxing Gibbous, 91% of the Moon is Illuminated
Mar 24
Waxing Gibbous
Mar 27
Full
Apr 3
Last Quarter
Apr 10
New
Apr 18
First Quarter

Hourly Weather History & Observations

Time (EDT) Temp. Windchill Dew Point Humidity Pressure Visibility Wind Dir Wind Speed Gust Speed Precip Events Conditions
12:54 AM 25.0 °F 15.5 °F 17.1 °F 72% 29.98 in 10.0 mi North 9.2 mph - N/A   Clear
1:54 AM 24.1 °F - 16.0 °F 71% 29.97 in 10.0 mi Calm Calm - N/A   Clear
2:54 AM 23.0 °F - 16.0 °F 74% 29.97 in 10.0 mi Calm Calm - N/A   Clear
3:54 AM 23.0 °F 18.4 °F 16.0 °F 74% 29.94 in 10.0 mi ENE 3.5 mph - N/A   Clear
4:54 AM 23.0 °F - 16.0 °F 74% 29.96 in 10.0 mi Calm Calm - N/A   Clear
5:54 AM 21.9 °F - 16.0 °F 78% 29.95 in 10.0 mi Calm Calm - N/A   Clear
6:54 AM 21.9 °F - 16.0 °F 78% 29.95 in 10.0 mi Calm Calm - N/A   Clear
7:54 AM 21.9 °F - 16.0 °F 78% 29.95 in 10.0 mi Calm Calm - N/A   Clear
8:54 AM 23.0 °F 15.8 °F 18.0 °F 81% 29.93 in 10.0 mi East 5.8 mph - N/A   Clear
9:54 AM 25.0 °F 20.7 °F 18.0 °F 75% 29.92 in 10.0 mi East 3.5 mph - N/A   Clear
10:54 AM 28.0 °F 20.8 °F 19.9 °F 72% 29.86 in 10.0 mi ENE 6.9 mph - N/A   Clear
11:54 AM 30.0 °F 24.1 °F 18.0 °F 61% 29.83 in 10.0 mi East 5.8 mph - N/A   Clear
12:54 PM 30.9 °F 23.5 °F 19.0 °F 61% 29.79 in 10.0 mi ESE 8.1 mph - N/A   Clear
1:54 PM 32.0 °F 25.6 °F 19.9 °F 61% 29.75 in 10.0 mi East 6.9 mph - N/A   Clear
2:54 PM 33.1 °F 26.9 °F 19.0 °F 56% 29.73 in 10.0 mi ESE 6.9 mph - N/A   Clear
3:54 PM 33.1 °F 26.9 °F 19.0 °F 56% 29.71 in 10.0 mi SE 6.9 mph - N/A   Partly Cloudy
4:54 PM 33.1 °F 27.7 °F 19.9 °F 59% 29.70 in 10.0 mi East 5.8 mph - N/A   Overcast
5:54 PM 33.1 °F 27.7 °F 19.9 °F 59% 29.67 in 10.0 mi East 5.8 mph - N/A   Overcast
6:54 PM 32.0 °F 24.2 °F 18.0 °F 56% 29.66 in 10.0 mi East 9.2 mph - N/A   Overcast
7:54 PM 32.0 °F 24.2 °F 17.1 °F 54% 29.64 in 10.0 mi ESE 9.2 mph 16.1 mph N/A   Overcast
8:54 PM 30.9 °F 24.3 °F 19.0 °F 61% 29.63 in 10.0 mi ESE 6.9 mph 17.3 mph N/A   Overcast
9:26 PM 30.2 °F 22.6 °F 21.2 °F 69% 29.56 in 2.5 mi ESE 8.1 mph 20.7 mph 0.00 in Snow Light Snow
9:38 PM 28.4 °F 19.7 °F 21.2 °F 74% 29.55 in 3.0 mi ESE 9.2 mph 17.3 mph 0.00 in Snow Light Snow
9:46 PM 28.4 °F 21.2 °F 21.2 °F 74% 29.55 in 8.0 mi ESE 6.9 mph - 0.00 in Snow Light Snow
9:54 PM 28.9 °F 20.4 °F 21.9 °F 75% 29.63 in 10.0 mi ESE 9.2 mph - 0.00 in   Overcast
10:54 PM 28.0 °F 20.8 °F 23.0 °F 81% 29.61 in 4.0 mi ESE 6.9 mph - 0.00 in Snow Light Snow
11:54 PM 28.0 °F 19.3 °F 23.0 °F 81% 29.57 in 2.5 mi East 9.2 mph - 0.00 in Snow Light Snow